sat.trackr.live / text

‹ back to catalog

STARLINK-1801

NORAD 46701 · 2020-073AH

PAYLOAD ACTIVE UNKNOWN

§ Identity

Operator
Country
US
Launch date
2020-10-18
Launch site
AFETR
Launch vehicle
Mass (kg)
RCS (m²)

Purposes: comms

External: N2YO · Heavens-Above · Gunter

§ Orbital elements

Epoch: 2026-05-31T13:07:58.472256Z

Period
87.59 min
Inclination
53.0177°
Eccentricity
0.0004338
Mean motion
16.44090342 rev/d
Perigee alt
152.1 km
Apogee alt
157.8 km
Semi-major
6,533.1 km
B*
3.9665e-4
RAAN
137.1315°
Arg perigee
281.3089°
Mean anomaly
78.7472°
Rev number
31,091

§ Raw data

STARLINK-18011 46701U 20073AH  26151.54720454  .10742885  12491-4  39665-3 0  99942 46701  53.0177 137.1315 0004338 281.3089  78.7472 16.44090342310915

JSON: /api/v1/satellites/46701 · /tle

For live sub-satellite position, see the globe view (requires WebGL).

§ Visibility from observer

Set your observer location to see the next 7 days of passes ≥ 10°. The values pass through the URL so the page stays shareable.

No JS? Fill the form by hand. The geolocation button needs JavaScript.